Waterloo, IA

8:14 AM CST on February 24, 2018 (GMT -0600)
Waterloo Municipal

Weather History for KALO - July, 2014

Change the Weather History Date:

Sunday, July 27, 2014

  Actual Average Record
Temperature  
Mean Temperature 70 °F 73 °F  
Max Temperature 76 °F 84 °F 102 °F (1916)
Min Temperature 63 °F 62 °F 45 °F (1971)
Degree Days  
Heating Degree Days 0 0  
Month to date heating degree days 17 0  
Since 1 June heating degree days 24 26  
Since 1 July heating degree days 17 0  
Cooling Degree Days 5 8  
Month to date cooling degree days 139 239  
Year to date cooling degree days 377 472  
Since 1 June cooling degree days 310 416  
Growing Degree Days 20 (Base 50)    
Moisture  
Dew Point 60 °F    
Average Humidity 77    
Maximum Humidity 97    
Minimum Humidity 57    
Precipitation  
Precipitation 0.01 in 0.14 in 2.31 in (1990)
Month to date precipitation 1.14 4.34  
Year to date precipitation 24.80 21.44  
Snow  
Snow 0.00 in 0.00 in - ()
Month to date snowfall 0.0 0.0  
Since 1 June snowfall 0.0 0.0  
Since 1 July snowfall 0.0 0.0  
Snow Depth 0.00 in    
Sea Level Pressure  
Sea Level Pressure 29.90 in    
Wind  
Wind Speed 13 mph (WNW)    
Max Wind Speed 26 mph    
Max Gust Speed 35 mph    
Visibility 10 miles    
Events Rain    
T = Trace of Precipitation, MM = Missing Value Source: NWS Daily Summary

Daily Weather History Graph

Daily Weather History Graph

Search for Another Location

Airport or City:

Trip Planner

Search our weather history database for the weather conditions in past years. The results will help you decide how hot, cold, wet, or windy it might be!

Date:

Astronomy

Jul. 27, 2014 Rise Set
Actual Time 5:56 AM CDT 8:35 PM CDT
Civil Twilight 5:24 AM CDT 9:07 PM CDT
Nautical Twilight 4:43 AM CDT 9:47 PM CDT
Astronomical Twilight 3:56 AM CDT 10:34 PM CDT
Moon 6:46 AM CDT (7/27) 8:41 PM CDT (7/27)
Length of Visible Light 15h 43m
Length of Day
14h 38m
New Moon, 1% of the Moon is Illuminated
Jul 27
New Moon
Aug 3
First Quarter
Aug 10
Full
Aug 17
Last Quarter
Aug 25
New

Hourly Weather History & Observations

Time (CDT) Temp. Dew Point Humidity Pressure Visibility Wind Dir Wind Speed Gust Speed Precip Events Conditions
12:54 AM 68.0 °F 66.9 °F 96% 29.83 in 6.0 mi WNW 4.6 mph - N/A   Clear
1:54 AM 69.1 °F 68.0 °F 96% 29.83 in 7.0 mi West 4.6 mph - N/A   Clear
2:54 AM 69.1 °F 66.9 °F 93% 29.82 in 10.0 mi West 4.6 mph - N/A   Partly Cloudy
3:54 AM 69.1 °F 64.9 °F 87% 29.82 in 10.0 mi WNW 8.1 mph - N/A   Clear
4:54 AM 66.9 °F 64.0 °F 90% 29.83 in 10.0 mi WNW 8.1 mph - N/A   Clear
5:54 AM 66.0 °F 62.1 °F 87% 29.84 in 10.0 mi WNW 8.1 mph - N/A   Clear
6:54 AM 66.9 °F 60.1 °F 79% 29.85 in 10.0 mi WNW 6.9 mph - N/A   Clear
7:54 AM 68.0 °F 59.0 °F 73% 29.86 in 10.0 mi WNW 11.5 mph 20.7 mph N/A   Clear
8:54 AM 70.0 °F 57.0 °F 63% 29.86 in 10.0 mi WNW 13.8 mph 21.9 mph N/A   Clear
9:54 AM 71.1 °F 57.0 °F 61% 29.87 in 10.0 mi NW 21.9 mph 35.7 mph N/A   Partly Cloudy
10:54 AM 72.0 °F 57.0 °F 59% 29.88 in 10.0 mi WNW 18.4 mph 25.3 mph N/A   Mostly Cloudy
11:54 AM 71.1 °F 55.9 °F 59% 29.90 in 10.0 mi WNW 17.3 mph 28.8 mph N/A   Overcast
12:54 PM 71.6 °F 55.4 °F 57% 29.92 in 10.0 mi NW 18.4 mph 27.6 mph N/A   Overcast
1:54 PM 71.1 °F 57.9 °F 63% 29.92 in 10.0 mi WNW 16.1 mph - 0.00 in   Overcast
2:54 PM 72.0 °F 57.9 °F 61% 29.91 in 10.0 mi WNW 16.1 mph 29.9 mph N/A   Mostly Cloudy
3:54 PM 73.0 °F 59.0 °F 61% 29.93 in 10.0 mi WNW 16.1 mph 26.5 mph 0.00 in   Overcast
4:54 PM 75.9 °F 60.1 °F 58% 29.93 in 10.0 mi WNW 13.8 mph 28.8 mph 0.00 in   Mostly Cloudy
5:54 PM 73.9 °F 57.9 °F 57% 29.94 in 10.0 mi NW 20.7 mph 28.8 mph N/A   Mostly Cloudy
6:54 PM 73.9 °F 59.0 °F 59% 29.95 in 10.0 mi NNW 20.7 mph 25.3 mph N/A   Scattered Clouds
7:54 PM 72.0 °F 59.0 °F 64% 29.97 in 10.0 mi NW 11.5 mph - N/A   Clear
8:54 PM 69.1 °F 60.1 °F 73% 29.98 in 10.0 mi WNW 8.1 mph - N/A   Partly Cloudy
9:54 PM 66.0 °F 62.1 °F 87% 30.01 in 10.0 mi NW 12.7 mph 23.0 mph 0.01 in Rain Light Rain
10:54 PM 64.0 °F 61.0 °F 90% 30.02 in 10.0 mi NNW 9.2 mph - 0.00 in   Clear
11:54 PM 63.0 °F 61.0 °F 93% 30.04 in 10.0 mi NNW 9.2 mph - N/A   Clear